Location: Ashtead
(51.3000°N, 0.3000°W)
Time: 04:40:45
(UTC+00:00)

CZ-2C R/B - Pass Details

Date: 26 September 2023
Orbit: 666 x 781 km, 98.3° (Epoch: 29 November)

Event Time Altitude Azimuth Distance (km) Brightness Sun altitude
Rises 02:44:05 0° 22° (NNE) 3,183 6.6 -28.3°
Reaches altitude 10° 02:46:44 10° 35° (NE) 2,234 5.8 -27.9°
Maximum altitude 02:50:53 27° 93° (E) 1,346 4.2 -27.4°
Enters shadow 02:53:38 17° 140° (SE) 1,762 4.4 -27.1°
